Regional Weather Roundup
Issued by NWS State College, PA

Home | Current Version | Previous Version | Text Only | Print | Product List | Glossary On
Versions: 1 2 3 4 5 6 7 8 9 10 11 12 13 14 15 16 17 18 19 20 21 22 23 24 25 26 27 28 29 30 31 32 33 34 35 36 37 38 39 40 41 42 43 44 45 46 47 48 49 50
000
ASUS41 KCTP 261010
RWRCTP

REGIONAL WEATHER ROUNDUP
NATIONAL WEATHER SERVICE STATE COLLEGE PA
600 AM EDT SUN APR 26 2015

Note: "fair" indicates few or no clouds below 12,000 feet with no
significant weather and/or obstructions to visibility.

* = STATION THAT DOES NOT REPORT PRECIPITATION /E.G. RAIN...SNOW...ETC/
    THUNDER OR FOG.

PAZ002>004-007>009-013>016-020>023-029>032-261100-
WESTERN PENNSYLVANIA

CITY           SKY/WX    TMP DP  RH WIND       PRES   REMARKS
ERIE           CLEAR     31  25  78 CALM      29.79R
MEADVILLE      CLEAR     33  24  69 NE7       29.75R
FRANKLIN*      CLEAR     30  21  69 NE8       29.75R
NEW CASTLE     FAIR      36  28  73 NE7       29.74S
BEAVER COUNTY  NOT AVBL
BUTLER*        CLEAR     37  25  60 E8        29.73R
PITTSBURGH INT PTCLDY    42  26  53 NE8       29.70R
PITTSBURGH     PTCLDY    42  22  44 VRB3      29.68R
INDIANA*       PTCLDY    39  27  60 E7        29.73S
LATROBE        PTCLDY    39  32  75 CALM      29.71R
WASHINGTON CO* PTCLDY    41  34  75 N5        29.70R
$$

PAZ004>006-010>012-017>019-024>028-033>037-041-042-045-046-049>053-261100-
CENTRAL PENNSYLVANIA

CITY           SKY/WX    TMP DP  RH WIND       PRES   REMARKS
BRADFORD       CLEAR     30  22  72 N3        29.73R
DUBOIS         CLEAR     34  24  67 NE5       29.71R
CLEARFIELD     CLEAR     34  23  64 N6        29.72S
JOHNSTOWN      MOCLDY    36  24  62 NE8       29.66S
ALTOONA        MOCLDY    37  26  64 NE7       29.70R
STATE COLLEGE  CLEAR     36  25  64 CALM      29.72S
WILLIAMSPORT   CLEAR     32  26  78 CALM      29.75R
SELINSGROVE    PTCLDY    31  27  85 CALM      29.74S
FT INDIANTOWN  MOCLDY    43  26  51 N10G18    29.69F
CAPITAL CITY   MOCLDY    40  33  76 SW5       29.70F
HARRISBURG     CLOUDY    42  32  67 NW7       29.69F
YORK           CLOUDY    40  34  79 CALM      29.69S
$$

PAZ038>040-043-044-047-048-054-055-060>062-067>071-261100-
EASTERN PENNSYLVANIA

CITY           SKY/WX    TMP DP  RH WIND       PRES   REMARKS
SCRANTON       CLEAR     31  24  75 E3        29.72R
MOUNT POCONO   PTCLDY    33  24  69 N7        29.67R
ALLENTOWN      PTCLDY    36  27  69 CALM      29.70R
QUAKERTOWN*    PTSUNNY   41  27  56 N6        29.69S
READING        MOCLDY    40  27  59 N5        29.69S
LANCASTER      CLOUDY    41  29  62 CALM      29.68F
COATESVILLE    CLOUDY    45  28  53 N8        29.67F
POTTSTOWN      MOCLDY    41  27  57 NW3       29.69R
BLUE BELL      MOCLDY    45  30  57 CALM      29.67R
DOYLESTOWN     MOCLDY    40  27  59 NE5       29.67S
WILLOW GROVE   NOT AVBL
NORTH PHILA    CLOUDY    47  26  44 NE9       29.69R
PHILADELPHIA   CLOUDY    48  29  47 N8        29.68R
$$



USA.gov is the U.S. government's official web portal to all federal, state and local government web resources and services.